This demonstration page uses our WeatherBlox Daily Observations layout. Learn more.

Left ArrowRight Arrow

Hourly Observations for October 3, 2020

Temp ( °F °C ) Dew Point ( °F °C ) Humidity (%) Winds ( mph kmh ) Pressure ( in mb ) Visibility ( mi km ) Precip ( " mm )
12:53 am 00:53 Mostly Cloudy 50 10 39 3.9 66 66 NE 9 15 30.02 1017 10 16 0.00 0.00
1:53 am 01:53 Mostly Cloudy 47 8.3 39 3.9 74 74 N 7 11 30.02 1017 10 16 0.00 0.00
2:53 am 02:53 Clear 46 7.8 38 3.3 73 73 NNW 8 13 30.03 1017 10 16 0.00 0.00
3:53 am 03:53 Clear 44 6.7 39 3.9 83 83 NNW 9 15 30.04 1017 10 16 0.00 0.00
4:53 am 04:53 Clear 43 6.1 39 3.9 86 86 N 8 13 30.04 1017 10 16 0.00 0.00
5:53 am 05:53 Clear 41 5 38 3.3 89 89 NNW 8 13 30.06 1018 10 16 0.00 0.00
6:53 am 06:53 Clear 41 5 38 3.3 89 89 NW 8 13 30.09 1019 10 16 0.00 0.00
7:53 am 07:53 Sunny 40 4.4 37 2.8 89 89 NNW 9 15 30.11 1020 10 16 0.00 0.00
8:22 am 08:22 Mostly Sunny 42 5.6 39 3.9 89 89 NNW 8 13 30.15 1021 10 16 0.00 0.00
8:41 am 08:41 Mostly Cloudy 43 6.1 39 3.9 86 86 NNW 9 15 30.16 1021 10 16 0.00 0.00
8:53 am 08:53 Mostly Cloudy 42 5.6 39 3.9 89 89 NNW 9 15 30.13 1020 10 16 0.00 0.00
9:13 am 09:13 Mostly Cloudy 44 6.7 40 4.4 85 85 N 9 15 30.16 1021 10 16 0.00 0.00
9:34 am 09:34 Partly Cloudy 46 7.8 41 5 83 83 N 12 19 30.16 1021 10 16 0.00 0.00
9:53 am 09:53 Mostly Sunny 48 8.9 41 5 77 77 N 10 17 30.13 1020 10 16 0.00 0.00
10:53 am 10:53 Mostly Sunny 52 11.1 41 5 66 66 N 12 19 30.14 1021 10 16 0.00 0.00
11:53 am 11:53 Sunny 55 12.8 41 5 59 59 N 12 19 30.15 1021 10 16 0.00 0.00
12:53 pm 12:53 Sunny 58 14.4 41 5 53 53 N 13 20 30.15 1021 10 16 0.00 0.00
1:53 pm 13:53 Sunny 60 15.6 41 5 50 50 undefined N/A 30.15 1021 10 16 0.00 0.00
2:53 pm 14:53 Sunny 61 16.1 40 4.4 46 46 N 13 20 30.14 1021 10 16 0.00 0.00
3:53 pm 15:53 Sunny 61 16.1 40 4.4 46 46 NNE 8 13 30.14 1021 10 16 0.00 0.00
4:53 pm 16:53 Sunny 62 16.7 39 3.9 43 43 NNE 13 20 30.14 1021 10 16 0.00 0.00
5:53 pm 17:53 Sunny 60 15.6 39 3.9 46 46 N 8 13 30.17 1022 10 16 0.00 0.00
7:53 pm 19:53 Clear 52 11.1 38 3.3 59 59 E 5 7 30.20 1023 10 16 0.00 0.00
8:53 pm 20:53 Clear 52 11.1 38 3.3 59 59 SE 3 6 30.22 1023 10 16 0.00 0.00
9:53 pm 21:53 Clear 50 10 38 3.3 63 63 SE 6 9 30.22 1023 10 16 0.00 0.00
10:53 pm 22:53 Clear 48 8.9 38 3.3 68 68 undefined N/A 30.23 1024 10 16 0.00 0.00
11:53 pm 23:53 Clear 47 8.3 37 2.8 69 69 undefined N/A 30.23 1024 10 16 0.00 0.00

Powered by AerisWeather